This demonstration page uses our WeatherBlox Daily Observations layout. Learn more.

38.89511, -77.03637

Hourly Observations for December 14, 2019

Temp ( °F °C ) Dew Point ( °F °C ) Humidity (%) Winds ( mph kmh ) Pressure ( in mb ) Visibility ( mi km ) Precip ( " mm )
12:19 am 00:19 Cloudy with Light Rain 41 5 40 4.4 96 96 NNW 7 11 29.77 1008 5 8.04672 0.01 0.254
12:52 am 00:52 Cloudy with Light Rain 42 5.6 41 5 96 96 NW 12 19 29.71 1006 6 9.656064 0.03 0.762
1:52 am 01:52 Cloudy 43 6.1 42 5.6 97 97 NNW 6 9 29.68 1005 7 11.265408 0.001 0.001
2:42 am 02:42 Cloudy 44 6.7 43 6.1 96 96 NW 5 7 29.65 1004 7 11.265408 0 0
2:52 am 02:52 Cloudy 45 7.2 43 6.1 93 93 NNW 5 7 29.62 1003 8 12.874752 0 0
3:23 am 03:23 Cloudy 46 7.8 44 6.7 93 93 NNW 3 6 29.62 1003 8 12.874752 0 0
3:52 am 03:52 Cloudy with Mist and Fog 45 7.2 44 6.7 97 97 N 7 11 29.59 1002 4 6.437376 0 0
4:05 am 04:05 Cloudy with Mist and Fog 44 6.7 43 6.1 96 96 N 5 7 29.59 1002 2 3.218688 0 0
4:13 am 04:13 Cloudy with Mist and Fog 44 6.7 43 6.1 96 96 N 5 7 29.59 1002 1.5 2.414016 0 0
4:29 am 04:29 Cloudy with Mist and Fog 44 6.7 43 6.1 96 96 NW 8 13 29.59 1002 1.5 2.414016 0 0
4:41 am 04:41 Cloudy with Mist and Fog 44 6.7 43 6.1 96 96 N 8 13 29.59 1002 2 3.218688 0 0
4:52 am 04:52 Cloudy with Mist and Fog 43 6.1 43 6.1 100 100 NNW 8 13 29.56 1001 1.75 2.816352 0 0
5:26 am 05:26 Cloudy with Mist and Fog 43 6.1 42 5.6 97 97 N 5 7 29.56 1001 2 3.218688 0 0
5:52 am 05:52 Cloudy with Mist and Fog 43 6.1 43 6.1 100 100 NNW 3 6 29.53 1000 2 3.218688 0 0
6:34 am 06:34 Cloudy with Mist and Fog 43 6.1 42 5.6 97 97 NW 8 13 29.53 1000 3 4.828032 0 0
6:52 am 06:52 Cloudy with Light Drizzle 43 6.1 42 5.6 97 97 WNW 6 9 29.5 999 5 8.04672 0.001 0.001
6:58 am 06:58 Cloudy with Light Drizzle 43 6.1 43 6.1 100 100 W 3 6 29.53 1000 6 9.656064 0.001 0.001
7:28 am 07:28 Cloudy with Light Drizzle 43 6.1 43 6.1 100 100 N 5 7 29.5 999 2.5 4.02336 0.001 0.001
7:34 am 07:34 Cloudy with Light Drizzle 43 6.1 43 6.1 100 100 N 7 11 29.5 999 1.75 2.816352 0.001 0.001
7:48 am 07:48 Cloudy with Light Drizzle 43 6 43 6 100 100 NNW 6 9 29.5 999 2 3.218688 0.01 0.254
7:52 am 07:52 Cloudy with Light Drizzle 43 6.1 43 6.1 100 100 NNW 6 9 29.47 998 2.5 4.02336 0.01 0.254
7:55 am 07:55 Cloudy with Light Drizzle 43 6.1 43 6.1 100 100 NNW 5 7 29.5 999 3 4.828032 0.001 0.001
8:52 am 08:52 Cloudy with Light Rain 44 6.7 43 6.1 96 96 NNW 5 7 29.44 997 7 11.265408 0.001 0.001
9:52 am 09:52 Cloudy with Light Rain 46 7.8 44 6.7 93 93 Calm 29.38 995 6 9.656064 0.001 0.001
10:24 am 10:24 Cloudy with Light Drizzle 45 7.2 44 6.7 97 97 WSW 3 6 29.41 996 2.5 4.02336 0.001 0.001
10:27 am 10:27 Cloudy with Light Drizzle 45 7.2 44 6.7 97 97 Calm 29.41 996 2 3.218688 0.001 0.001
10:30 am 10:30 Cloudy with Light Drizzle 45 7.2 44 6.7 97 97 WSW 3 6 29.41 996 1.75 2.816352 0.001 0.001
10:46 am 10:46 Cloudy with Light Rain 45 7 45 7 100 100 VRB 5 7 29.41 996 0.75 1.207008 0.01 0.254
10:52 am 10:52 Cloudy with Light Rain 45 7.2 44 6.7 97 97 WSW 9 15 29.38 995 1 1.609344 0.01 0.254
11:18 am 11:18 Cloudy with Light Rain 45 7.2 44 6.7 97 97 W 15 24 29.41 996 2 3.218688 0.04 1.016
11:24 am 11:24 Cloudy with Light Rain 44 6.7 43 6.1 96 96 W 14 22 29.38 995 3 4.828032 0.05 1.27
11:27 am 11:27 Cloudy with Light Rain 44 6.7 43 6.1 96 96 W 10 17 29.38 995 4 6.437376 0.05 1.27
11:33 am 11:33 Cloudy with Light Rain 45 7.2 43 6.1 93 93 WNW 9 15 29.38 995 5 8.04672 0.06 1.524
11:52 am 11:52 Cloudy 45 7.2 44 6.7 97 97 NNE 9 15 29.29 992 8 12.874752 0.06 1.524
11:54 am 11:54 Cloudy 45 7.2 44 6.7 97 97 N 9 15 29.32 993 10 16.09344 0 0
12:09 pm 12:09 Cloudy 46 7.8 44 6.7 93 93 W 6 9 29.35 994 10 16.09344 0 0
12:21 pm 12:21 Cloudy with Light Rain 46 7.8 44 6.7 93 93 WSW 8 13 29.38 995 6 9.656064 0.001 0.001
12:26 pm 12:26 Cloudy with Light Rain 46 7.8 44 6.7 93 93 WSW 6 9 29.38 995 3 4.828032 0.001 0.001
12:29 pm 12:29 Cloudy with Light Rain 46 7.8 44 6.7 93 93 WSW 5 7 29.35 994 2.5 4.02336 0.001 0.001
12:32 pm 12:32 Cloudy with Light Rain 46 7.8 44 6.7 93 93 WSW 6 9 29.35 994 3 4.828032 0.01 0.254
12:36 pm 12:36 Cloudy with Light Rain 46 7.8 45 7.2 96 96 Calm 29.35 994 5 8.04672 0.01 0.254
12:39 pm 12:39 Cloudy with Light Rain 47 8.3 45 7.2 93 93 WSW 5 7 29.35 994 6 9.656064 0.01 0.254
12:52 pm 12:52 Cloudy 47 8.3 45 7.2 93 93 W 6 9 29.32 993 10 16.09344 0.01 0.254
12:59 pm 12:59 Mostly Cloudy 48 8.9 46 7.8 93 93 WSW 6 9 29.35 994 10 16.09344 0 0
1:39 pm 13:39 Cloudy 49 9.4 46 7.8 90 90 WNW 6 9 29.35 994 10 16.09344 0 0
1:52 pm 13:52 Cloudy 49 9.4 46 7.8 90 90 W 6 9 29.32 993 10 16.09344 0 0
2:52 pm 14:52 Cloudy 48 8.9 46 7.8 93 93 VRB 7 11 29.32 993 10 16.09344 0 0
3:04 pm 15:04 Cloudy 47 8.3 46 7.8 97 97 S 6 9 29.35 994 10 16.09344 0 0
3:19 pm 15:19 Cloudy 47 8.3 45 7.2 93 93 S 7 11 29.38 995 10 16.09344 0 0
3:52 pm 15:52 Cloudy 48 8.9 46 7.8 93 93 SSW 7 11 29.35 994 10 16.09344 0 0
4:52 pm 16:52 Mostly Cloudy 50 10 47 8.3 89 89 W 5 7 29.41 996 10 16.09344 0 0
4:55 pm 16:55 Mostly Cloudy 50 10 47 8.3 89 89 W 6 9 29.41 996 10 16.09344 0 0
5:52 pm 17:52 Mostly Cloudy 51 10.6 41 5 69 69 WNW 16 26 29.44 997 10 16.09344 0 0
6:52 pm 18:52 Cloudy 49 9.4 34 1.1 56 56 WNW 14 22 29.5 999 10 16.09344 0 0
7:52 pm 19:52 Cloudy 48 8.9 33 0.6 56 56 WNW 22 35 29.53 1000 10 16.09344 0 0
8:52 pm 20:52 Mostly Clear 47 8.3 33 0.6 59 59 WNW 16 26 29.59 1002 10 16.09344 0 0
9:52 pm 21:52 Clear 47 8.3 32 0 56 56 WNW 18 30 29.59 1002 10 16.09344 0 0
10:07 pm 22:07 Mostly Cloudy 47 8.3 32 0 56 56 WNW 15 24 29.62 1003 10 16.09344 0 0
10:52 pm 22:52 Mostly Clear 46 7.8 32 0 58 58 WNW 12 19 29.62 1003 10 16.09344 0 0
11:52 pm 23:52 Mostly Cloudy 46 7.8 32 0 58 58 W 10 17 29.65 1004 10 16.09344 0 0

Powered by AerisWeather